Location: Roah Hook
(42.4840°N, 73.7893°W)
Time: 07:33:30
(UTC+00:00)

ARIANE 6 FM1 Upper Stage - Visible Passes

Search period start: 12 October 2024 00:00
Search period end: 22 October 2024 00:00
Orbit: 563 x 594 km, 62.0° (Epoch: 11 October)

Date Brightness Start Highest point End Pass type
(mag) Time Alt. Az. Time Alt. Az. Time Alt. Az.
12 Oct 5.4 00:45:10 10° N 00:45:36 11° N 00:45:36 11° N visible
13 Oct 5.3 00:48:59 10° N 00:49:45 13° N 00:49:45 13° N visible
14 Oct 5.2 00:52:57 10° NNW 00:53:55 15° N 00:53:55 15° N visible
15 Oct 5.2 00:56:59 10° NNW 00:58:06 16° NNW 00:58:06 16° NNW visible
15 Oct 4.9 23:23:27 10° N 23:25:06 12° NNE 23:26:01 11° NE visible
16 Oct 5.2 01:01:04 10° NNW 01:02:18 18° NNW 01:02:18 18° NNW visible
16 Oct 4.6 23:26:59 10° N 23:29:39 16° NNE 23:30:16 15° NE visible
17 Oct 5.2 01:05:14 10° NW 01:06:33 19° NW 01:06:33 19° NW visible
17 Oct 4.2 23:30:47 10° NNW 23:34:08 21° NE 23:34:33 21° NE visible
18 Oct 5.2 01:09:29 10° NW 01:10:50 19° NW 01:10:50 19° NW visible
18 Oct 3.7 23:34:40 10° NNW 23:38:30 29° NE 23:38:54 28° NE visible
19 Oct 5.4 01:13:50 10° NW 01:15:11 18° WNW 01:15:11 18° WNW visible
19 Oct 3.2 23:38:38 10° NNW 23:42:47 42° NE 23:43:20 40° ENE visible
20 Oct 5.6 01:18:23 10° WNW 01:19:38 16° WNW 01:19:38 16° WNW visible
20 Oct 2.7 23:42:39 10° NNW 23:46:59 65° NE 23:47:53 50° ESE visible
21 Oct 5.8 01:23:19 10° WNW 01:24:12 13° W 01:24:12 13° W visible
21 Oct 2.7 23:46:44 10° NW 23:51:06 81° SW 23:52:36 41° SSE visible
